Weather Roundup
Issued by NWS Chicago, IL

Home | Current Version | Previous Version | Text Only | Print | Product List | Glossary On
Versions: 1 2 3 4 5 6 7 8 9 10 11 12 13 14 15 16 17 18 19 20 21 22 23 24 25 26 27 28 29 30 31 32 33 34 35 36 37 38 39 40 41 42 43 44 45 46 47 48 49 50
000
NZUS59 KLOT 281121
HRRLOT

CHICAGO AREA WEATHER ROUNDUP
NATIONAL WEATHER SERVICE CHICAGO/ROMEOVILLE IL
600 AM CDT SAT MAR 28 2015

NOTE: "FAIR" INDICATES FEW OR NO CLOUDS BELOW 12,000 FEET WITH NO
SIGNIFICANT WEATHER AND/OR OBSTRUCTIONS TO VISIBILITY.

* THESE STATIONS ARE NOT UNDER NWS QUALITY CONTROL. THEY ALSO MAY NOT
  REPORT WEATHER SUCH AS PRECIPITATION OR FOG.

ILZ005-006-012>014-019>023-281200-
NORTHEAST ILLINOIS

CITY           SKY/WX    TMP DP  RH WIND       PRES   REMARKS
OHARE          CLEAR     20  13  74 N6        30.25R WCI  12
MIDWAY         CLEAR     23  14  68 N3        30.26R
AURORA         CLEAR     16  11  80 NW5       30.26R WCI   9
LANSING*       CLEAR     22  10  57 NE5       30.25R WCI  16
JOLIET*        CLEAR     20  16  84 N3        30.27R
WAUKEGAN       CLEAR     15  12  88 NW5       30.26R WCI   8
DUPAGE AIRPORT CLEAR     15  10  80 N3        30.25R
WHEELING       CLEAR     20  14  77 NE3       30.27R
KANKAKEE*      CLEAR     22  17  81 N3        30.26R
MORRIS*        CLEAR     18  13  80 CALM      30.26R
LEWIS AIRPORT* CLEAR     19  14  79 N5        30.26R WCI  13
NORTHERLY IS     N/A     24  10  55 N8          N/A  WCI  15
$$

WIZ051-052-058>065-066-070>072-281200-
SOUTHEAST WISCONSIN

CITY           SKY/WX    TMP DP  RH WIND       PRES   REMARKS
MILWAUKEE      PTCLDY    19  11  70 W5        30.27R WCI  12
KENOSHA*       CLEAR     18  12  77 N6        30.26R WCI  10
RACINE*        CLEAR     17  12  80 NW6       30.28R WCI   9
BURLINGTON     CLEAR     11   9  92 CALM      30.26R
WAUKESHA       CLEAR     16  12  86 CALM      30.27R
WEST BEND      CLEAR     14  12  92 CALM      30.26R
$$

INZ001>003-010>013-019-020-281200-
NORTHWEST INDIANA

CITY           SKY/WX    TMP DP  RH WIND       PRES   REMARKS
GARY*          CLEAR     25   9  50 NE12      30.26R WCI  14
MICHIGAN CITY* NOT AVBL
RENSSELAER*    NOT AVBL
VALPARAISO     CLEAR     14   6  70 NE3       30.25R
$$

LMZ740>746-281200-
SOUTHERN LAKE MICHIGAN

STATION/POSITION TIME  SKY/WX   TEMP WIND        PRES    VSBY
                                AIR  DIR/SP/G
                 (UTC)          (F)  (DEG/KT/KT) (MB)    (MI)
HARRISON CRIB    1100            25   30/ 11/ 14   N/A
BURNHAM HARBOR   1100            25   40/  7/ 12   N/A
CALUMET HARBOR   1000            25   10/  8/ 12 1022.8R
BURNS HARBOR     1000            24   50/  9/ 13 1024.4R
MICHIGAN CITY    1100            18   70/  7/  8   N/A
$$

ABBREVIATIONS USED IN REMARKS
   TC - TEMPERATURE IN CELSIUS
  WCI - WIND CHILL INDEX
   HX - HEAT INDEX
  VSB - VISIBILITY
$$


USA.gov is the U.S. government's official web portal to all federal, state and local government web resources and services.